Regional Weather Roundup
Issued by NWS Green Bay, WI

Home | Current Version | Previous Version | Graphics & Text | Print | Product List | Glossary Off
Versions: 1 2 3 4 5 6 7 8 9 10 11 12 13 14 15 16 17 18 19 20 21 22 23 24 25 26 27 28 29 30 31 32 33 34 35 36 37 38 39 40 41 42 43 44 45 46 47 48 49 50

000
ASUS43 KGRB 161600
RWRGRB

NORTH-CENTRAL AND NORTHEAST WISCONSIN REGIONAL WEATHER ROUNDUP
NATIONAL WEATHER SERVICE GREEN BAY WI
1000 AM CST MON JAN 16 2017

WIZ005-009-010>012-018-019-161700-
NORTH CENTRAL WISCONSIN

CITY           SKY/WX    TMP DP  RH WIND       PRES   REMARKS
IRONWOOD       SUNNY     27  17  66 CALM      30.15F
MANITOWISH WTR NOT AVBL
ARBOR VITAE    NOT AVBL
EAGLE RIVER    NOT AVBL
LAND O LAKES   NOT AVBL
RHINELANDER    CLOUDY    11  10  96 CALM      30.18S FOG
PHILLIPS       CLOUDY   N/A N/A N/A CALM      30.17R
ANTIGO         NOT AVBL
TOMAHAWK       NOT AVBL
MERRILL        CLOUDY     6   1  79 CALM        N/A
$$

WIZ013-073-161700-
NORTHEAST WISCONSIN

CITY           SKY/WX    TMP DP  RH WIND       PRES   REMARKS
IRON MOUNTAIN  CLOUDY    23  11  60 NW3       30.17F
MARINETTE      NOT AVBL
$$

WIZ017-030-035>037-045-161700-
CENTRAL WISCONSIN

CITY           SKY/WX    TMP DP  RH WIND       PRES   REMARKS
MEDFORD        NOT AVBL
WAUSAU         CLOUDY     9   5  84 CALM      30.21R FOG
MOSINEE        NOT AVBL
MARSHFIELD     CLOUDY    14  10  84 NE6       30.19R FOG     WCI   5
WISC RAPIDS    CLOUDY    20  17  88 NE3       30.22S
STEVENS POINT  NOT AVBL
WAUPACA        NOT AVBL
SHAWANO        NOT AVBL
CLINTONVILLE   CLOUDY    14   9  79 CALM      30.25R
WAUTOMA        CLOUDY    26  21  81 CALM      30.23F
$$

WIZ038-039-048-051-161700-
FOX VALLEY

CITY           SKY/WX    TMP DP  RH WIND       PRES   REMARKS
NWS GREEN BAY  CLOUDY    25  19  78 CALM      30.25S
APPLETON       PTSUNNY   21  16  79 CALM      30.22F
OSHKOSH        CLOUDY    27  21  78 CALM      30.23F HAZE
FOND DU LAC    CLOUDY    29  18  63 CALM      30.23F
$$

WIZ022-050-052-161700-
EAST CENTRAL WISCONSIN

CITY           SKY/WX    TMP DP  RH WIND       PRES   REMARKS
EPHRAIM        NOT AVBL
WASHINGTON ISL NOT AVBL
STURGEON BAY   CLOUDY    27  19  72 S3        30.27R
MANITOWOC      NOT AVBL
SHEBOYGAN      CLOUDY    29  19  66 CALM      30.25F
$$

LMZ563-521-522-541>543-161700-
LAKESHORE

STATION/POSITION TIME  TEMP    WIND        PRES    VSBY  WAVE
                       AIR SEA DIR/SP/G                  HT/PER
                 (UTC) (F)     (DEG/KT/KT) (MB)    (MI)  (FT/S)
SHEBOYGAN LKSHOR 1500   30     190/  5/  5 1025.6F
KEWAUNEE LKSHORE 1530   25     190/  3/  4 1024.0F
NORTHPORT PIER   1540   27      CALM  /  1 1024.7R
SISTER BAY LKSHO 1520   31     320/  3/  4   N/A
MENOMINEE LKSHOR 1530          200/  2/  4 1023.6R
$$




USA.gov is the U.S. government's official web portal to all federal, state and local government web resources and services.